SCP
0 0 0 0 -0 -0 -0 0 0 0 0 0 0 0 0 0 0 0 0 0 0 0 0 0 0 0 0 0 0 0 0 0 0 0 0 0 0 0 0 0 0 0 0 0
0 0 0 0 0 0 0 0 0 0 0 0 -0 -0 0 0 0 0 0 0 0 0 0 0 0 0 0 0 0 0 0 0 0 0 0 0 0 0 0 0 0 0 0 0
0 0 0 0 0 0 0 0 0 0 0 -0 -0 -0 0 -0 -0 0 0 0 0 0 0 0 0 0 0 0 0 0 0 0 0 0 0 0 0 0 0 0 0 0 0 0
0 0 0 0 0 0 0 0 0 0 -0 -0 -0 -0 -0 -0 -0 0 0 -0 -0 0 0 0 0 0 0 0 0 0 0 0 0 0 0 0 0 0 0 0 0 0 0 0
0 0 0 0 0 0 0 -0 0 0 -0 -0 -0 -0 -0 -0 -0 -0 0 0 0 0 0 0 0 0 0 0 0 0 0 0 0 0 0 0 0 0 0 0 0 0 0 0
0 0 0 0 0 0 0 0 -0 -0 -0 -0 -0 0 0 0 0 0 0 0 0 0 0 0 0 0 0 0 0 0 0 0 0 0 0 0 0 0 0 0 0 0 0 0
0 0 0 0 0 0 0 0 -0 -0 -0 -0 0 0 -0 0 0 0 0 0 0 0 0 0 0 0 0 0 0 0 0 0 0 0 0 0 0 0 0 0 0 0 0 0
0 0 0 0 0 0 0 -0 -0 -0 0 -0 -0 -0 0 0 0 0 0 0 0 0 0 0 0 0 0 0 0 0 0 0 0 0 0 0 0 0 0 0 0 0 0 0
0 0 0 0 0 0 0 -0 0 -0 0 -0 -0 -0 -0 0 0 0 0 0 0 0 0 0 0 0 0 0 0 0 0 0 0 0 0 0 0 0 0 0 0 0 0 0
0 0 0 0 0 0 0 0 0 0 0 0 -0 0 0 0 0 0 0 0 0 0 0 0 0 0 0 0 0 0 0 0 0 0 0 0 0 0 0 0 0 0 0 0
0 0 0 0 0 0 0 0 0 0 0 0 0 0 0 0 0 0 0 0 0 0 0 0 0 0 0 0 0 0 0 0 0 0 0 0 0 0 0 0 0 0 0 0
0 0 0 0 0 -0 -0 -0 -0 -0 -0 0 0 0 0 0 0 0 0 0 0 0 0 0 0 0 0 0 0 0 0 0 0 0 0 0 0 0 0 0 0 0 0 0
0 0 0 0 0 0 0 -0 -0 -0 -0 -0 0 0 0 0 0 0 0 0 0 0 0 0 0 0 0 0 0 0 0 0 0 0 0 0 0 0 0 0 0 0 0 0
0 -0 0 0 0 0 0 0 -0 -0 0 0 0 0 0 0 0 0 0 0 0 0 0 0 0 0 0 0 0 0 0 0 0 0 0 0 0 0 0 0 0 0 0 0
0 0 0 0 0 0 0 0 0 0 0 0 0 0 0 0 0 0 0 0 0 0 0 0 0 0 -0 0 0 0 0 0 0 0 0 0 0 0 0 0 0 0 0 0
0 0 0 0 0 0 0 0 0 0 0 0 0 0 0 0 0 0 0 0 0 0 0 0 0 0 -0 -0 0 0 0 0 0 0 0 0 0 0 0 0 0 0 0 0
0 0 0 0 0 0 0 0 0 0 0 0 0 0 0 0 0 0 0 0 0 0 0 0 0 0 -0 -0 0 0 0 0 0 0 0 0 0 0 0 0 0 0 0 0
0 0 0 0 0 0 0 0 0 0 0 0 0 0 0 0 0 0 0 0 0 0 0 0 0 0 0 0 0 -0 0 0 0 0 0 0 0 -0 0 0 0 0 0 0
0 -0 -0 -0 0 0 0 0 0 0 0 0 0 0 0 0 0 0 0 0 0 0 0 0 0 0 0 0 0 0 0 -0 -0 -0 -0 -0 0 0 0 -0 -0 -0 -0 0
-0 -0 -0 -0 0 0 0 0 0 0 0 0 0 0 0 0 0 0 0 0 0 0 0 0 0 0 0 0 0 0 -0 -0 -0 -0 -0 0 0 0 -0 -0 -0 -0 -0 0
0 0 0 0 0 0 0 0 0 0 0 0 0 0 0 0 0 0 0 0 0 0 0 0 0 0 0 0 0 0 0 -0 -0 -0 -0 -0 -0 -0 -0 -0 -0 -0 -0 -0
0 0 0 0 0 0 0 0 0 0 0 0 0 0 0 0 0 0 0 0 0 0 0 0 0 0 0 -0 0 0 -0 -0 -0 -0 -0 -0 -0 -0 0 -0 -0 -0 -0 -0
0 0 0 0 0 0 0 0 0 0 0 0 0 0 0 0 0 0 0 0 0 0 0 0 -0 0 -0 0 0 0 0 -0 -0 -0 -0 -0 -0 0 0 0 -0 -0 0 0
0 0 0 0 0 0 0 0 0 0 0 0 0 0 0 0 0 0 0 0 0 0 0 0 -0 -0 -0 -0 0 0 -0 -0 -0 -0 0 0 0 0 0 -0 -0 -0 -0 0
0 0 0 0 0 0 0 0 0 0 0 0 0 0 0 0 0 -0 0 0 0 0 0 0 0 -0 -0 -0 -0 -0 -0 -0 -0 0 0 -0 -0 -0 -0 -0 -0 -0 -0 -0
0 0 0 0 0 0 0 -0 -0 -0 -0 0 0 0 0 0 0 0 0 0 0 0 0 0 0 0 0 0 0 -0 -0 -0 -0 -0 -0 -0 -0 -0 -0 -0 -0 -0 -0 -0
0 0 0 -0 -0 -0 -0 -0 0 0 -0 0 0 0 0 0 0 0 0 0 0 0 0 0 0 0 0 0 -0 0 0 0 0 -0 -0 -0 -0 -0 -0 -0 -0 -0 -0 -0
Wind_Speed_500mb
11 7 6 15 34 35 34 28 17 23 21 14 16 9 9 15 23 29 35 39 39 38 43 40 36 33 31 31 32 28 25 27 31 36 39 41 43 47 51 55 60 67 74 80
8 8 9 8 18 23 20 16 12 8 9 10 28 23 23 29 38 38 40 39 43 42 40 36 32 31 31 29 24 23 25 30 36 40 42 45 49 54 60 66 73 82 87 89
9 3 13 11 15 21 11 11 11 13 14 31 28 30 28 29 46 43 42 41 42 39 34 31 30 26 21 19 18 23 27 35 40 44 48 54 60 68 74 81 86 84 79 72
8 9 12 7 2 12 10 9 5 16 30 32 36 37 36 32 42 44 44 50 44 39 34 29 21 15 12 14 18 24 31 39 47 55 62 67 72 74 77 74 70 66 58 49
10 8 4 2 10 14 12 6 9 22 33 46 50 45 34 26 31 41 43 46 40 32 23 13 8 4 10 18 25 34 44 51 58 65 65 66 67 67 63 59 52 44 36 33
8 10 14 11 14 8 7 7 23 34 39 54 46 17 11 22 32 38 38 35 29 21 11 3 8 16 24 33 39 45 52 57 57 56 58 59 56 49 46 42 38 34 33 39
9 5 4 4 13 12 12 1 38 49 53 42 15 16 47 37 36 34 29 22 14 6 4 13 21 28 34 40 43 47 47 47 48 49 48 43 40 37 36 35 33 34 39 38
6 6 10 7 10 13 13 38 45 46 39 44 60 57 46 38 32 24 17 11 8 10 17 25 31 34 36 38 40 40 42 42 41 37 34 33 33 31 30 32 35 35 38 36
4 4 8 5 7 3 25 50 38 50 49 68 61 49 40 34 26 19 14 13 15 18 22 25 30 32 32 35 38 38 37 35 32 29 27 28 30 30 31 33 35 37 37 39
13 10 13 15 23 32 40 50 45 51 55 53 63 45 38 29 21 15 14 16 19 22 25 27 29 31 33 35 34 32 31 31 30 29 27 25 26 29 32 31 31 34 38 42
11 14 29 22 27 47 58 56 57 49 47 47 47 38 30 25 20 17 16 17 19 20 22 23 27 30 32 33 33 31 30 30 29 29 29 28 26 27 26 23 25 31 33 38
9 31 22 30 35 51 62 59 58 58 49 37 30 32 26 24 21 18 16 16 16 17 20 24 27 30 31 32 33 33 32 31 31 29 28 29 31 30 25 25 21 20 25 32
23 36 50 49 45 46 65 53 48 45 39 41 34 29 26 26 21 18 17 17 19 20 21 22 24 28 30 31 31 32 33 33 31 31 31 32 35 37 40 31 23 21 22 24
67 90 53 36 40 49 55 51 45 43 39 36 35 31 27 23 21 19 18 17 18 20 19 21 24 26 28 28 28 27 29 29 30 32 34 36 38 38 39 38 37 34 27 28
42 47 62 65 57 50 45 44 43 41 38 37 31 28 24 21 18 15 14 13 13 17 20 21 23 26 29 29 27 28 28 30 30 31 34 36 37 39 39 39 39 41 39 33
59 66 60 59 54 48 41 36 39 37 35 32 29 25 22 18 15 13 11 10 9 14 16 18 21 24 28 31 28 27 28 30 31 32 34 35 37 40 40 43 43 43 44 48
66 46 49 48 49 42 35 32 34 36 35 31 27 23 18 14 11 11 12 13 13 15 17 18 22 25 28 31 31 31 30 29 30 31 33 35 37 39 41 46 46 45 44 43
48 57 49 56 51 42 38 35 35 34 32 28 24 21 18 15 13 13 15 16 15 17 17 17 20 24 27 30 32 31 32 31 30 30 31 32 34 37 41 41 50 48 47 48
47 50 51 45 40 39 40 38 34 32 29 25 22 20 18 16 15 15 16 19 20 20 20 19 21 23 28 31 31 30 30 31 31 31 31 32 33 34 37 42 45 50 52 52
50 50 48 44 37 33 38 34 32 30 26 22 20 20 19 18 18 17 19 24 25 25 25 25 26 29 31 31 33 31 32 33 34 35 37 35 36 37 39 42 43 46 48 55
53 51 47 43 38 34 31 32 30 28 27 24 22 21 20 20 20 20 22 23 24 26 27 28 30 33 35 33 34 35 36 37 38 41 41 40 39 40 41 42 44 48 49 52
49 47 42 35 36 37 33 32 29 29 29 27 25 23 21 22 22 23 23 23 24 25 27 29 31 33 32 32 34 35 35 35 37 38 40 41 42 43 45 47 47 48 50 52
41 39 35 33 35 38 37 33 32 29 30 28 28 27 24 23 21 19 21 21 23 25 25 27 28 28 29 31 32 34 35 35 36 38 40 40 42 44 46 47 48 49 52 55
41 40 37 36 36 39 41 37 33 29 27 27 27 28 26 26 27 24 22 21 21 20 22 24 24 25 26 28 30 32 34 35 36 38 39 40 40 41 43 46 48 50 52 54
38 36 34 34 34 36 39 37 32 28 25 23 21 19 18 19 21 24 27 24 23 22 21 20 20 22 24 26 28 30 32 35 37 38 39 41 42 43 43 45 47 50 52 55
37 34 33 33 35 38 37 35 28 26 23 20 16 13 12 11 12 15 21 24 26 27 26 22 19 20 22 25 27 29 31 33 35 37 39 40 42 44 45 45 46 49 51 54
37 37 38 36 34 32 29 26 24 21 18 15 13 11 9 7 5 6 10 15 20 24 28 29 24 22 23 25 26 27 29 31 35 37 39 40 42 43 46 47 49 49 50 53
Wind_Direction_500mb
49 115 161 162 183 187 195 215 201 250 220 215 169 116 84 120 138 142 138 137 138 138 152 163 170 178 187 200 208 217 232 248 261 269 275 282 288 290 291 293 296 299 301 302
69 104 142 124 161 181 191 199 234 257 159 139 125 108 102 110 115 114 113 114 122 135 146 156 166 173 182 190 201 221 242 260 270 275 282 288 291 292 293 296 298 301 303 304
137 132 143 121 173 173 156 170 201 180 142 140 120 97 90 109 109 106 104 109 119 129 136 142 151 161 174 192 218 245 262 270 276 283 288 291 294 295 299 302 303 304 305 305
125 166 184 63 302 177 135 111 146 118 141 129 111 92 76 92 106 112 118 120 118 124 129 138 147 169 199 235 255 274 281 286 290 291 293 296 299 303 304 306 309 310 309 309
153 188 73 295 179 166 186 154 142 131 128 128 126 100 57 76 100 112 115 118 120 126 140 145 165 228 269 284 292 292 291 292 296 298 301 304 306 307 310 312 313 314 321 322
170 179 197 194 171 166 179 237 162 153 148 146 155 141 131 114 114 115 116 120 129 132 132 173 279 300 303 304 304 302 301 301 302 306 307 308 310 315 315 316 320 322 326 323
156 154 224 260 143 160 190 229 158 155 153 149 141 130 140 129 122 122 118 115 111 106 307 314 318 322 321 317 313 311 310 310 310 311 313 316 318 320 318 319 318 320 324 328
131 142 204 125 147 195 112 128 141 148 145 118 121 126 131 130 124 119 112 96 57 14 354 346 337 330 327 325 322 321 320 320 320 321 322 321 323 324 321 318 320 325 325 322
214 96 356 330 297 211 151 138 133 131 135 136 130 131 131 127 124 115 91 53 28 8 354 347 344 342 339 334 332 332 333 334 334 334 333 330 328 324 326 326 324 323 319 320
163 51 64 88 105 118 131 127 130 134 134 133 131 134 131 128 116 94 65 40 25 17 10 3 359 355 351 346 343 346 347 348 345 343 340 337 334 334 328 327 325 323 323 329
91 117 101 80 115 129 127 125 122 121 126 128 130 127 126 116 103 85 65 49 33 23 19 14 11 8 4 360 358 359 358 352 350 351 348 347 347 339 333 333 321 318 322 320
155 155 105 126 128 131 123 124 129 133 125 122 127 127 127 117 104 88 75 62 48 37 29 24 21 18 14 12 10 8 7 4 3 359 358 357 352 357 3 349 334 322 316 314
123 127 113 121 122 124 126 125 129 130 131 131 125 124 123 119 111 98 79 60 52 44 36 30 26 23 20 17 15 11 12 12 10 11 8 2 3 358 351 4 13 357 340 330
137 131 115 125 120 125 128 129 130 125 125 127 128 127 123 116 108 95 83 68 59 55 46 37 31 24 19 16 16 14 10 10 12 15 11 9 8 4 5 3 359 8 8 359
123 129 131 131 131 129 131 134 130 128 130 126 126 126 120 116 108 96 85 73 60 56 50 42 39 32 22 18 20 18 15 9 9 16 16 14 10 12 11 12 11 8 3 8
121 129 129 131 135 136 137 135 133 132 131 128 128 126 123 113 98 87 80 70 54 45 38 32 27 25 21 13 15 22 21 15 12 17 18 17 15 17 14 19 18 15 11 7
122 127 134 134 141 143 141 140 138 135 135 132 131 127 122 107 90 76 66 57 48 39 35 29 29 21 18 18 13 14 15 14 15 16 17 20 21 19 17 23 21 22 18 17
146 148 150 146 148 147 145 144 140 136 132 129 125 120 110 100 94 80 58 55 55 48 36 27 31 22 15 22 19 17 19 18 17 17 16 17 20 21 20 26 25 25 22 22
143 146 148 146 146 147 146 142 137 132 129 125 121 116 109 93 87 80 61 56 54 49 42 36 34 29 25 24 23 24 27 29 27 26 24 22 21 21 20 22 25 27 25 22
144 146 146 144 145 147 143 137 134 132 125 121 120 115 108 93 84 73 65 61 56 50 44 44 41 37 35 31 28 30 32 32 31 31 31 28 24 23 22 24 22 21 19 23
147 149 147 144 143 141 139 136 137 133 124 116 116 114 104 91 84 81 79 71 62 56 51 48 47 45 39 34 37 33 34 34 33 32 31 28 25 23 21 21 22 20 20 20
149 148 145 143 143 140 139 137 136 127 119 115 111 104 99 95 90 87 83 75 65 59 54 51 45 42 38 33 33 32 30 29 29 28 28 28 27 25 23 22 21 19 20 21
151 153 150 150 149 146 141 138 131 124 118 110 103 97 95 97 94 86 82 73 66 59 53 48 43 37 34 33 32 31 30 28 26 24 23 23 23 23 23 22 20 18 18 18
149 154 153 152 150 147 144 141 132 126 120 116 112 105 94 91 89 83 77 69 61 53 46 42 36 32 30 32 32 30 30 30 28 26 24 23 22 20 20 19 19 20 20 18
145 151 156 155 153 152 151 149 145 142 139 136 127 117 108 94 81 75 65 61 55 47 39 34 31 30 33 35 34 32 31 31 29 27 26 23 21 20 18 17 16 15 16 18
151 154 155 156 158 160 162 161 162 161 158 155 148 138 129 117 93 73 62 55 50 43 38 34 35 35 36 35 33 31 30 27 25 24 24 22 21 19 18 16 15 15 14 14
154 150 149 156 162 165 167 169 171 170 165 164 158 158 158 142 114 78 54 45 41 38 36 33 33 35 35 33 31 29 27 25 23 22 22 21 20 19 18 17 16 15 14 13
Wind_Speed_850mb
11 7 6 15 34 35 34 28 17 23 21 14 16 9 9 15 23 29 35 39 39 38 43 40 36 33 31 31 32 28 25 27 31 36 39 41 43 47 51 55 60 67 74 80
8 8 9 8 18 23 20 16 12 8 9 10 28 23 23 29 38 38 40 39 43 42 40 36 32 31 31 29 24 23 25 30 36 40 42 45 49 54 60 66 73 82 87 89
9 3 13 11 15 21 11 11 11 13 14 31 28 30 28 29 46 43 42 41 42 39 34 31 30 26 21 19 18 23 27 35 40 44 48 54 60 68 74 81 86 84 79 72
8 9 12 7 2 12 10 9 5 16 30 32 36 37 36 32 42 44 44 50 44 39 34 29 21 15 12 14 18 24 31 39 47 55 62 67 72 74 77 74 70 66 58 49
10 8 4 2 10 14 12 6 9 22 33 46 50 45 34 26 31 41 43 46 40 32 23 13 8 4 10 18 25 34 44 51 58 65 65 66 67 67 63 59 52 44 36 33
8 10 14 11 14 8 7 7 23 34 39 54 46 17 11 22 32 38 38 35 29 21 11 3 8 16 24 33 39 45 52 57 57 56 58 59 56 49 46 42 38 34 33 39
9 5 4 4 13 12 12 1 38 49 53 42 15 16 47 37 36 34 29 22 14 6 4 13 21 28 34 40 43 47 47 47 48 49 48 43 40 37 36 35 33 34 39 38
6 6 10 7 10 13 13 38 45 46 39 44 60 57 46 38 32 24 17 11 8 10 17 25 31 34 36 38 40 40 42 42 41 37 34 33 33 31 30 32 35 35 38 36
4 4 8 5 7 3 25 50 38 50 49 68 61 49 40 34 26 19 14 13 15 18 22 25 30 32 32 35 38 38 37 35 32 29 27 28 30 30 31 33 35 37 37 39
13 10 13 15 23 32 40 50 45 51 55 53 63 45 38 29 21 15 14 16 19 22 25 27 29 31 33 35 34 32 31 31 30 29 27 25 26 29 32 31 31 34 38 42
11 14 29 22 27 47 58 56 57 49 47 47 47 38 30 25 20 17 16 17 19 20 22 23 27 30 32 33 33 31 30 30 29 29 29 28 26 27 26 23 25 31 33 38
9 31 22 30 35 51 62 59 58 58 49 37 30 32 26 24 21 18 16 16 16 17 20 24 27 30 31 32 33 33 32 31 31 29 28 29 31 30 25 25 21 20 25 32
23 36 50 49 45 46 65 53 48 45 39 41 34 29 26 26 21 18 17 17 19 20 21 22 24 28 30 31 31 32 33 33 31 31 31 32 35 37 40 31 23 21 22 24
67 90 53 36 40 49 55 51 45 43 39 36 35 31 27 23 21 19 18 17 18 20 19 21 24 26 28 28 28 27 29 29 30 32 34 36 38 38 39 38 37 34 27 28
42 47 62 65 57 50 45 44 43 41 38 37 31 28 24 21 18 15 14 13 13 17 20 21 23 26 29 29 27 28 28 30 30 31 34 36 37 39 39 39 39 41 39 33
59 66 60 59 54 48 41 36 39 37 35 32 29 25 22 18 15 13 11 10 9 14 16 18 21 24 28 31 28 27 28 30 31 32 34 35 37 40 40 43 43 43 44 48
66 46 49 48 49 42 35 32 34 36 35 31 27 23 18 14 11 11 12 13 13 15 17 18 22 25 28 31 31 31 30 29 30 31 33 35 37 39 41 46 46 45 44 43
48 57 49 56 51 42 38 35 35 34 32 28 24 21 18 15 13 13 15 16 15 17 17 17 20 24 27 30 32 31 32 31 30 30 31 32 34 37 41 41 50 48 47 48
47 50 51 45 40 39 40 38 34 32 29 25 22 20 18 16 15 15 16 19 20 20 20 19 21 23 28 31 31 30 30 31 31 31 31 32 33 34 37 42 45 50 52 52
50 50 48 44 37 33 38 34 32 30 26 22 20 20 19 18 18 17 19 24 25 25 25 25 26 29 31 31 33 31 32 33 34 35 37 35 36 37 39 42 43 46 48 55
53 51 47 43 38 34 31 32 30 28 27 24 22 21 20 20 20 20 22 23 24 26 27 28 30 33 35 33 34 35 36 37 38 41 41 40 39 40 41 42 44 48 49 52
49 47 42 35 36 37 33 32 29 29 29 27 25 23 21 22 22 23 23 23 24 25 27 29 31 33 32 32 34 35 35 35 37 38 40 41 42 43 45 47 47 48 50 52
41 39 35 33 35 38 37 33 32 29 30 28 28 27 24 23 21 19 21 21 23 25 25 27 28 28 29 31 32 34 35 35 36 38 40 40 42 44 46 47 48 49 52 55
41 40 37 36 36 39 41 37 33 29 27 27 27 28 26 26 27 24 22 21 21 20 22 24 24 25 26 28 30 32 34 35 36 38 39 40 40 41 43 46 48 50 52 54
38 36 34 34 34 36 39 37 32 28 25 23 21 19 18 19 21 24 27 24 23 22 21 20 20 22 24 26 28 30 32 35 37 38 39 41 42 43 43 45 47 50 52 55
37 34 33 33 35 38 37 35 28 26 23 20 16 13 12 11 12 15 21 24 26 27 26 22 19 20 22 25 27 29 31 33 35 37 39 40 42 44 45 45 46 49 51 54
37 37 38 36 34 32 29 26 24 21 18 15 13 11 9 7 5 6 10 15 20 24 28 29 24 22 23 25 26 27 29 31 35 37 39 40 42 43 46 47 49 49 50 53
Wind_Direction_850mb
49 115 161 162 183 187 195 215 201 250 220 215 169 116 84 120 138 142 138 137 138 138 152 163 170 178 187 200 208 217 232 248 261 269 275 282 288 290 291 293 296 299 301 302
69 104 142 124 161 181 191 199 234 257 159 139 125 108 102 110 115 114 113 114 122 135 146 156 166 173 182 190 201 221 242 260 270 275 282 288 291 292 293 296 298 301 303 304
137 132 143 121 173 173 156 170 201 180 142 140 120 97 90 109 109 106 104 109 119 129 136 142 151 161 174 192 218 245 262 270 276 283 288 291 294 295 299 302 303 304 305 305
125 166 184 63 302 177 135 111 146 118 141 129 111 92 76 92 106 112 118 120 118 124 129 138 147 169 199 235 255 274 281 286 290 291 293 296 299 303 304 306 309 310 309 309
153 188 73 295 179 166 186 154 142 131 128 128 126 100 57 76 100 112 115 118 120 126 140 145 165 228 269 284 292 292 291 292 296 298 301 304 306 307 310 312 313 314 321 322
170 179 197 194 171 166 179 237 162 153 148 146 155 141 131 114 114 115 116 120 129 132 132 173 279 300 303 304 304 302 301 301 302 306 307 308 310 315 315 316 320 322 326 323
156 154 224 260 143 160 190 229 158 155 153 149 141 130 140 129 122 122 118 115 111 106 307 314 318 322 321 317 313 311 310 310 310 311 313 316 318 320 318 319 318 320 324 328
131 142 204 125 147 195 112 128 141 148 145 118 121 126 131 130 124 119 112 96 57 14 354 346 337 330 327 325 322 321 320 320 320 321 322 321 323 324 321 318 320 325 325 322
214 96 356 330 297 211 151 138 133 131 135 136 130 131 131 127 124 115 91 53 28 8 354 347 344 342 339 334 332 332 333 334 334 334 333 330 328 324 326 326 324 323 319 320
163 51 64 88 105 118 131 127 130 134 134 133 131 134 131 128 116 94 65 40 25 17 10 3 359 355 351 346 343 346 347 348 345 343 340 337 334 334 328 327 325 323 323 329
91 117 101 80 115 129 127 125 122 121 126 128 130 127 126 116 103 85 65 49 33 23 19 14 11 8 4 360 358 359 358 352 350 351 348 347 347 339 333 333 321 318 322 320
155 155 105 126 128 131 123 124 129 133 125 122 127 127 127 117 104 88 75 62 48 37 29 24 21 18 14 12 10 8 7 4 3 359 358 357 352 357 3 349 334 322 316 314
123 127 113 121 122 124 126 125 129 130 131 131 125 124 123 119 111 98 79 60 52 44 36 30 26 23 20 17 15 11 12 12 10 11 8 2 3 358 351 4 13 357 340 330
137 131 115 125 120 125 128 129 130 125 125 127 128 127 123 116 108 95 83 68 59 55 46 37 31 24 19 16 16 14 10 10 12 15 11 9 8 4 5 3 359 8 8 359
123 129 131 131 131 129 131 134 130 128 130 126 126 126 120 116 108 96 85 73 60 56 50 42 39 32 22 18 20 18 15 9 9 16 16 14 10 12 11 12 11 8 3 8
121 129 129 131 135 136 137 135 133 132 131 128 128 126 123 113 98 87 80 70 54 45 38 32 27 25 21 13 15 22 21 15 12 17 18 17 15 17 14 19 18 15 11 7
122 127 134 134 141 143 141 140 138 135 135 132 131 127 122 107 90 76 66 57 48 39 35 29 29 21 18 18 13 14 15 14 15 16 17 20 21 19 17 23 21 22 18 17
146 148 150 146 148 147 145 144 140 136 132 129 125 120 110 100 94 80 58 55 55 48 36 27 31 22 15 22 19 17 19 18 17 17 16 17 20 21 20 26 25 25 22 22
143 146 148 146 146 147 146 142 137 132 129 125 121 116 109 93 87 80 61 56 54 49 42 36 34 29 25 24 23 24 27 29 27 26 24 22 21 21 20 22 25 27 25 22
144 146 146 144 145 147 143 137 134 132 125 121 120 115 108 93 84 73 65 61 56 50 44 44 41 37 35 31 28 30 32 32 31 31 31 28 24 23 22 24 22 21 19 23
147 149 147 144 143 141 139 136 137 133 124 116 116 114 104 91 84 81 79 71 62 56 51 48 47 45 39 34 37 33 34 34 33 32 31 28 25 23 21 21 22 20 20 20
149 148 145 143 143 140 139 137 136 127 119 115 111 104 99 95 90 87 83 75 65 59 54 51 45 42 38 33 33 32 30 29 29 28 28 28 27 25 23 22 21 19 20 21
151 153 150 150 149 146 141 138 131 124 118 110 103 97 95 97 94 86 82 73 66 59 53 48 43 37 34 33 32 31 30 28 26 24 23 23 23 23 23 22 20 18 18 18
149 154 153 152 150 147 144 141 132 126 120 116 112 105 94 91 89 83 77 69 61 53 46 42 36 32 30 32 32 30 30 30 28 26 24 23 22 20 20 19 19 20 20 18
145 151 156 155 153 152 151 149 145 142 139 136 127 117 108 94 81 75 65 61 55 47 39 34 31 30 33 35 34 32 31 31 29 27 26 23 21 20 18 17 16 15 16 18
151 154 155 156 158 160 162 161 162 161 158 155 148 138 129 117 93 73 62 55 50 43 38 34 35 35 36 35 33 31 30 27 25 24 24 22 21 19 18 16 15 15 14 14
154 150 149 156 162 165 167 169 171 170 165 164 158 158 158 142 114 78 54 45 41 38 36 33 33 35 35 33 31 29 27 25 23 22 22 21 20 19 18 17 16 15 14 13